FIN1163 EFHK-EPKK

Flight info

Callsign FIN1163
Flight time 1h 38m
Altitude 38000
Route KOIVU Y123 LARTI DCT LUTAL DCT BERIL/N0450F370 DCT BOKSU/N0450F380 DCT TITUV M985 EVINA M66 KUKAM
Aircraft A319/M-SDE3FGHIRWY/LB1

Departure

Time 2026-04-25 17:03
Airport Helsinki Vantaa Airport (EFHK)

Arrival

Time 2026-04-25 18:41
Airport Kraków John Paul II International Airport (EPKK)
Time Latitude Longitude Altitude Speed Heading
2026-04-25 16:34 60.31870 24.96544 194 ft 0 kts 137°
2026-04-25 16:54 60.31875 24.96536 194 ft 4 kts 137°
2026-04-25 16:55 60.31895 24.96499 194 ft 4 kts 137°
2026-04-25 16:55 60.31915 24.96462 194 ft 4 kts 137°
2026-04-25 16:55 60.31934 24.96426 194 ft 3 kts 137°
2026-04-25 16:55 60.31935 24.96425 194 ft 0 kts 137°
2026-04-25 16:57 60.31930 24.96442 194 ft 2 kts 110°
2026-04-25 16:57 60.31931 24.96465 194 ft 3 kts 71°
2026-04-25 16:57 60.31975 24.96561 194 ft 13 kts 46°
2026-04-25 16:57 60.32015 24.96671 194 ft 7 kts 48°
2026-04-25 16:58 60.32041 24.96726 194 ft 6 kts 49°
2026-04-25 16:58 60.32075 24.96805 194 ft 8 kts 47°
2026-04-25 16:58 60.32110 24.96878 194 ft 9 kts 46°
2026-04-25 16:58 60.32154 24.96960 194 ft 7 kts 36°
2026-04-25 16:59 60.32192 24.96968 194 ft 7 kts 342°
2026-04-25 16:59 60.32238 24.96918 194 ft 8 kts 331°
2026-04-25 16:59 60.32295 24.96858 194 ft 8 kts 334°
2026-04-25 16:59 60.32320 24.96834 194 ft 2 kts 335°
2026-04-25 17:00 60.32338 24.96815 194 ft 3 kts 333°
2026-04-25 17:00 60.32361 24.96791 194 ft 4 kts 331°
2026-04-25 17:00 60.32372 24.96779 194 ft 0 kts 333°
2026-04-25 17:02 60.32377 24.96774 194 ft 4 kts 333°
2026-04-25 17:02 60.32449 24.96698 194 ft 17 kts 330°
2026-04-25 17:02 60.32474 24.96623 194 ft 7 kts 266°
2026-04-25 17:03 60.32396 24.96421 194 ft 39 kts 229°
2026-04-25 17:03 60.31967 24.95504 194 ft 136 kts 231°
2026-04-25 17:03 60.31212 24.93824 667 ft 170 kts 230°
2026-04-25 17:03 60.30307 24.92109 1622 ft 186 kts 229°
2026-04-25 17:04 60.29291 24.90390 2605 ft 195 kts 224°
2026-04-25 17:04 60.28140 24.88735 3444 ft 213 kts 211°
2026-04-25 17:04 60.26747 24.87449 4326 ft 229 kts 205°
2026-04-25 17:04 60.25244 24.86179 5354 ft 238 kts 204°
2026-04-25 17:05 60.23612 24.85147 6319 ft 254 kts 196°
2026-04-25 17:05 60.20041 24.83566 8390 ft 271 kts 194°
2026-04-25 17:05 60.18195 24.82697 9524 ft 274 kts 195°
2026-04-25 17:06 60.16314 24.81773 10513 ft 284 kts 196°
2026-04-25 17:06 60.14342 24.80800 11270 ft 301 kts 196°
2026-04-25 17:06 60.12232 24.79769 12025 ft 315 kts 195°
2026-04-25 17:06 60.10101 24.78746 12973 ft 319 kts 195°
2026-04-25 17:07 60.07905 24.77704 13987 ft 322 kts 195°
2026-04-25 17:07 60.05738 24.76675 14899 ft 326 kts 195°
2026-04-25 17:07 60.03524 24.75616 15769 ft 331 kts 195°
2026-04-25 17:07 60.01261 24.74529 16630 ft 335 kts 196°
2026-04-25 17:08 59.98976 24.73434 17454 ft 340 kts 196°
2026-04-25 17:08 59.96627 24.72314 18232 ft 345 kts 196°
2026-04-25 17:08 59.94299 24.71207 18978 ft 351 kts 196°
2026-04-25 17:08 59.91922 24.70081 19717 ft 355 kts 196°
2026-04-25 17:09 59.89460 24.68911 20425 ft 361 kts 197°
2026-04-25 17:09 59.87026 24.67755 21084 ft 366 kts 197°
2026-04-25 17:09 59.84538 24.66571 21726 ft 371 kts 197°
2026-04-25 17:09 59.81998 24.65371 22346 ft 377 kts 197°
2026-04-25 17:10 59.79428 24.64162 22948 ft 382 kts 197°
2026-04-25 17:10 59.76827 24.62935 23535 ft 387 kts 197°
2026-04-25 17:10 59.74189 24.61695 24112 ft 392 kts 197°
2026-04-25 17:10 59.71508 24.60436 24669 ft 397 kts 197°
2026-04-25 17:11 59.68804 24.59163 25213 ft 402 kts 197°
2026-04-25 17:11 59.66063 24.57929 25745 ft 408 kts 195°
2026-04-25 17:11 59.63268 24.56795 26274 ft 413 kts 195°
2026-04-25 17:11 59.60429 24.55681 26796 ft 418 kts 194°
2026-04-25 17:12 59.57567 24.54561 27301 ft 423 kts 195°
2026-04-25 17:12 59.54657 24.53416 27785 ft 428 kts 195°
2026-04-25 17:12 59.51759 24.52271 28268 ft 433 kts 195°
2026-04-25 17:12 59.48749 24.51075 28756 ft 438 kts 195°
2026-04-25 17:13 59.45800 24.49904 29224 ft 443 kts 194°
2026-04-25 17:13 59.44771 24.49496 29382 ft 444 kts 194°
2026-04-25 17:13 59.39640 24.47486 30225 ft 451 kts 194°
2026-04-25 17:13 59.36560 24.46297 30749 ft 454 kts 194°
2026-04-25 17:14 59.33465 24.45095 31258 ft 457 kts 194°
2026-04-25 17:14 59.30341 24.43880 31847 ft 458 kts 194°
2026-04-25 17:14 59.27196 24.42654 32429 ft 459 kts 193°
2026-04-25 17:14 59.24064 24.41433 33019 ft 460 kts 193°
2026-04-25 17:15 59.21981 24.40628 33397 ft 460 kts 193°
2026-04-25 17:15 59.17813 24.39024 34158 ft 461 kts 193°
2026-04-25 17:15 59.14684 24.37827 34713 ft 462 kts 193°
2026-04-25 17:15 59.11515 24.36612 35232 ft 462 kts 193°
2026-04-25 17:16 59.08315 24.35377 35744 ft 462 kts 193°
2026-04-25 17:16 59.05196 24.34170 36223 ft 463 kts 193°
2026-04-25 17:16 59.02038 24.32957 36691 ft 463 kts 192°
2026-04-25 17:16 58.98883 24.31747 37142 ft 463 kts 192°
2026-04-25 17:17 58.95709 24.30534 37369 ft 463 kts 192°
2026-04-25 17:17 58.92553 24.29340 37364 ft 462 kts 192°
2026-04-25 17:17 58.86241 24.26961 37370 ft 463 kts 192°
2026-04-25 17:18 58.79918 24.24566 37381 ft 462 kts 192°
2026-04-25 17:18 58.73604 24.22185 37393 ft 462 kts 192°
2026-04-25 17:19 58.67290 24.19815 37403 ft 462 kts 192°
2026-04-25 17:19 58.60980 24.17455 37414 ft 462 kts 192°
2026-04-25 17:20 58.54682 24.15107 37449 ft 461 kts 192°
2026-04-25 17:20 58.48359 24.12765 37436 ft 462 kts 192°
2026-04-25 17:21 58.42056 24.10429 37453 ft 461 kts 192°
2026-04-25 17:21 58.35758 24.08105 37451 ft 461 kts 192°
2026-04-25 17:22 58.31574 24.06575 37462 ft 461 kts 192°
2026-04-25 17:22 58.23144 24.03473 37467 ft 461 kts 192°
2026-04-25 17:23 58.16851 24.01188 37477 ft 461 kts 192°
2026-04-25 17:23 58.10560 23.98917 37476 ft 460 kts 192°
2026-04-25 17:24 58.04287 23.96638 37481 ft 458 kts 192°
2026-04-25 17:24 57.98034 23.94381 37468 ft 457 kts 192°
2026-04-25 17:25 57.91796 23.92138 37427 ft 456 kts 192°
2026-04-25 17:25 57.85556 23.89941 37420 ft 456 kts 191°
2026-04-25 17:26 57.79308 23.87937 37417 ft 456 kts 191°
2026-04-25 17:26 57.73056 23.85915 37418 ft 456 kts 191°
2026-04-25 17:27 57.66792 23.83834 37421 ft 457 kts 191°
2026-04-25 17:27 57.62601 23.82460 37437 ft 457 kts 191°
2026-04-25 17:28 57.55324 23.80104 37504 ft 457 kts 191°
2026-04-25 17:28 57.49061 23.78076 37535 ft 456 kts 191°
2026-04-25 17:29 57.42785 23.76036 37530 ft 457 kts 191°
2026-04-25 17:29 57.36513 23.74011 37489 ft 457 kts 191°
2026-04-25 17:30 57.30237 23.72000 37450 ft 458 kts 191°
2026-04-25 17:30 57.24124 23.70044 37453 ft 458 kts 191°
2026-04-25 17:31 57.17854 23.68035 37487 ft 457 kts 191°
2026-04-25 17:31 57.11583 23.66050 37462 ft 458 kts 191°
2026-04-25 17:32 57.05298 23.64060 37456 ft 458 kts 191°
2026-04-25 17:32 56.99012 23.62067 37453 ft 459 kts 191°
2026-04-25 17:33 56.92716 23.60088 37471 ft 459 kts 191°
2026-04-25 17:33 56.86425 23.58117 37529 ft 458 kts 191°
2026-04-25 17:34 56.80185 23.56167 37541 ft 458 kts 191°
2026-04-25 17:34 56.73860 23.54196 37542 ft 457 kts 191°
2026-04-25 17:35 56.67610 23.52258 37545 ft 455 kts 191°
2026-04-25 17:35 56.61365 23.50324 37542 ft 453 kts 191°
2026-04-25 17:36 56.55166 23.48408 37513 ft 452 kts 191°
2026-04-25 17:36 56.49014 23.46520 37472 ft 451 kts 191°
2026-04-25 17:37 56.42789 23.44614 37467 ft 451 kts 191°
2026-04-25 17:37 56.36645 23.42752 37476 ft 451 kts 190°
2026-04-25 17:38 56.31435 23.41657 37477 ft 452 kts 187°
2026-04-25 17:38 56.24131 23.40345 37480 ft 453 kts 187°
2026-04-25 17:39 56.17871 23.39187 37512 ft 453 kts 187°
2026-04-25 17:39 56.11603 23.38004 37541 ft 453 kts 187°
2026-04-25 17:40 56.05326 23.36841 37557 ft 453 kts 187°
2026-04-25 17:40 55.99057 23.35688 37595 ft 452 kts 187°
2026-04-25 17:41 55.92793 23.34531 37596 ft 452 kts 187°
2026-04-25 17:41 55.86531 23.33377 37595 ft 453 kts 187°
2026-04-25 17:42 55.80274 23.32234 37594 ft 453 kts 187°
2026-04-25 17:42 55.73994 23.31090 37560 ft 453 kts 187°
2026-04-25 17:43 55.67715 23.29945 37535 ft 453 kts 187°
2026-04-25 17:43 55.61444 23.28806 37522 ft 453 kts 187°
2026-04-25 17:44 55.55169 23.27673 37521 ft 453 kts 187°
2026-04-25 17:44 55.48891 23.26539 37529 ft 453 kts 187°
2026-04-25 17:45 55.44702 23.25789 37530 ft 453 kts 187°
2026-04-25 17:45 55.36362 23.24294 37542 ft 453 kts 187°
2026-04-25 17:46 55.30101 23.23176 37557 ft 452 kts 187°
2026-04-25 17:46 55.23832 23.22062 37559 ft 452 kts 187°
2026-04-25 17:47 55.17566 23.20950 37572 ft 452 kts 187°
2026-04-25 17:47 55.11605 23.19897 37579 ft 452 kts 187°
2026-04-25 17:48 55.02210 23.18244 37595 ft 452 kts 187°
2026-04-25 17:49 54.95957 23.17145 37603 ft 452 kts 187°
2026-04-25 17:49 54.89698 23.16052 37614 ft 452 kts 187°
2026-04-25 17:50 54.83470 23.14964 37619 ft 452 kts 187°
2026-04-25 17:50 54.77164 23.13867 37620 ft 452 kts 187°
2026-04-25 17:51 54.70898 23.12785 37618 ft 452 kts 187°
2026-04-25 17:51 54.64650 23.11698 37626 ft 451 kts 188°
2026-04-25 17:52 54.58400 23.10626 37623 ft 451 kts 188°
2026-04-25 17:52 54.52199 23.09559 37597 ft 450 kts 188°
2026-04-25 17:53 54.45975 23.08490 37558 ft 450 kts 188°
2026-04-25 17:53 54.39764 23.07424 37562 ft 449 kts 188°
2026-04-25 17:54 54.33479 23.06354 37534 ft 448 kts 189°
2026-04-25 17:54 54.30454 23.05274 37535 ft 445 kts 200°
2026-04-25 17:54 54.27654 23.03237 37543 ft 441 kts 210°
2026-04-25 17:55 54.23176 22.98906 37535 ft 441 kts 213°
2026-04-25 17:55 54.17015 22.92772 37567 ft 442 kts 211°
2026-04-25 17:56 54.11606 22.87767 37627 ft 442 kts 211°
2026-04-25 17:56 54.06214 22.82747 37627 ft 441 kts 211°
2026-04-25 17:57 54.00857 22.77672 37626 ft 440 kts 211°
2026-04-25 17:57 53.95494 22.72650 37598 ft 440 kts 211°
2026-04-25 17:58 53.90134 22.67666 37556 ft 439 kts 211°
2026-04-25 17:58 53.84777 22.62677 37545 ft 439 kts 211°
2026-04-25 17:59 53.79412 22.57700 37542 ft 440 kts 211°
2026-04-25 17:59 53.74040 22.52733 37562 ft 439 kts 211°
2026-04-25 18:00 53.68687 22.47793 37615 ft 439 kts 211°
2026-04-25 18:00 53.63318 22.42858 37622 ft 439 kts 211°
2026-04-25 18:01 53.57942 22.37932 37584 ft 440 kts 211°
2026-04-25 18:01 53.52552 22.33003 37543 ft 441 kts 211°
2026-04-25 18:02 53.47164 22.28091 37556 ft 442 kts 211°
2026-04-25 18:02 53.41753 22.23181 37610 ft 441 kts 211°
2026-04-25 18:03 53.36365 22.18296 37675 ft 440 kts 211°
2026-04-25 18:03 53.30980 22.13431 37733 ft 440 kts 211°
2026-04-25 18:04 53.25597 22.08583 37768 ft 439 kts 211°
2026-04-25 18:04 53.20214 22.03745 37771 ft 440 kts 211°
2026-04-25 18:05 53.14889 21.98693 37761 ft 439 kts 213°
2026-04-25 18:05 53.09623 21.93582 37746 ft 440 kts 213°
2026-04-25 18:06 53.04347 21.88502 37743 ft 438 kts 213°
2026-04-25 18:06 52.99055 21.83427 37745 ft 439 kts 213°
2026-04-25 18:07 52.93772 21.78366 37745 ft 439 kts 213°
2026-04-25 18:07 52.89373 21.74170 37751 ft 439 kts 212°
2026-04-25 18:08 52.84079 21.69126 37774 ft 439 kts 212°
2026-04-25 18:08 52.78780 21.64090 37777 ft 439 kts 212°
2026-04-25 18:09 52.72618 21.58259 37772 ft 439 kts 212°
2026-04-25 18:09 52.68182 21.54072 37776 ft 439 kts 212°
2026-04-25 18:10 52.62878 21.49073 37758 ft 438 kts 212°
2026-04-25 18:10 52.57587 21.44106 37718 ft 438 kts 212°
2026-04-25 18:11 52.52280 21.39144 37712 ft 438 kts 212°
2026-04-25 18:11 52.46972 21.34181 37711 ft 438 kts 212°
2026-04-25 18:12 52.41673 21.29234 37713 ft 438 kts 212°
2026-04-25 18:12 52.36411 21.24352 37710 ft 438 kts 212°
2026-04-25 18:13 52.31099 21.19435 37738 ft 438 kts 212°
2026-04-25 18:13 52.25807 21.14534 37793 ft 437 kts 212°
2026-04-25 18:14 52.17883 21.07242 37800 ft 435 kts 212°
2026-04-25 18:14 52.12612 21.02405 37770 ft 435 kts 211°
2026-04-25 18:15 52.07162 20.98135 37717 ft 435 kts 207°
2026-04-25 18:15 52.04400 20.96127 37455 ft 431 kts 207°
2026-04-25 18:15 52.01677 20.94152 36850 ft 428 kts 207°
2026-04-25 18:16 51.98956 20.92139 35931 ft 432 kts 209°
2026-04-25 18:16 51.96125 20.90329 34795 ft 444 kts 202°
2026-04-25 18:16 51.90109 20.87590 32841 ft 448 kts 200°
2026-04-25 18:17 51.87116 20.86345 32178 ft 437 kts 201°
2026-04-25 18:17 51.84220 20.85088 31592 ft 425 kts 202°
2026-04-25 18:17 51.81421 20.83804 31043 ft 413 kts 204°
2026-04-25 18:17 51.78700 20.82520 30494 ft 402 kts 204°
2026-04-25 18:18 51.76035 20.81264 29958 ft 398 kts 205°
2026-04-25 18:18 51.73392 20.80039 29525 ft 393 kts 204°
2026-04-25 18:18 51.70764 20.78844 29078 ft 389 kts 204°
2026-04-25 18:18 51.68174 20.77678 28621 ft 385 kts 204°
2026-04-25 18:19 51.65605 20.76519 28191 ft 381 kts 205°
2026-04-25 18:19 51.63061 20.75366 27762 ft 377 kts 205°
2026-04-25 18:19 51.60553 20.74226 27335 ft 373 kts 205°
2026-04-25 18:19 51.58067 20.73099 26904 ft 370 kts 205°
2026-04-25 18:20 51.55599 20.71982 26478 ft 367 kts 205°
2026-04-25 18:20 51.53144 20.70871 26051 ft 364 kts 205°
2026-04-25 18:20 51.50708 20.69773 25626 ft 361 kts 205°
2026-04-25 18:20 51.48306 20.68690 25228 ft 358 kts 205°
2026-04-25 18:21 51.45911 20.67610 24860 ft 358 kts 205°
2026-04-25 18:21 51.43513 20.66523 24457 ft 357 kts 205°
2026-04-25 18:21 51.41121 20.65446 23997 ft 356 kts 205°
2026-04-25 18:21 51.38780 20.64398 23587 ft 353 kts 205°
2026-04-25 18:22 51.36417 20.63344 23185 ft 350 kts 205°
2026-04-25 18:22 51.35626 20.62992 23050 ft 350 kts 205°
2026-04-25 18:22 51.31722 20.61245 22394 ft 345 kts 205°
2026-04-25 18:22 51.29425 20.60218 22015 ft 343 kts 205°
2026-04-25 18:23 51.27126 20.59191 21649 ft 340 kts 205°
2026-04-25 18:23 51.24862 20.58180 21287 ft 337 kts 206°
2026-04-25 18:23 51.22639 20.57189 20933 ft 335 kts 206°
2026-04-25 18:23 51.20372 20.56180 20572 ft 333 kts 206°
2026-04-25 18:24 51.18143 20.55189 20229 ft 330 kts 206°
2026-04-25 18:24 51.15942 20.54212 19896 ft 327 kts 206°
2026-04-25 18:24 51.13756 20.53244 19567 ft 325 kts 205°
2026-04-25 18:24 51.11571 20.52274 19249 ft 327 kts 205°
2026-04-25 18:25 51.09382 20.51301 18925 ft 326 kts 205°
2026-04-25 18:25 51.07200 20.50336 18602 ft 325 kts 205°
2026-04-25 18:25 51.05027 20.49373 18301 ft 325 kts 205°
2026-04-25 18:25 51.02881 20.48423 18000 ft 323 kts 205°
2026-04-25 18:26 51.00686 20.47459 17687 ft 322 kts 205°
2026-04-25 18:26 50.98536 20.46514 17373 ft 320 kts 205°
2026-04-25 18:26 50.96389 20.45565 17054 ft 322 kts 205°
2026-04-25 18:26 50.94223 20.44603 16734 ft 325 kts 205°
2026-04-25 18:27 50.92024 20.43631 16433 ft 331 kts 205°
2026-04-25 18:27 50.89812 20.42660 16130 ft 335 kts 204°
2026-04-25 18:27 50.87555 20.41672 15818 ft 337 kts 204°
2026-04-25 18:27 50.85303 20.40693 15506 ft 336 kts 204°
2026-04-25 18:28 50.83052 20.39714 15195 ft 334 kts 204°
2026-04-25 18:28 50.80815 20.38738 14870 ft 332 kts 204°
2026-04-25 18:28 50.78596 20.37767 14517 ft 330 kts 204°
2026-04-25 18:29 50.74192 20.35848 13715 ft 327 kts 204°
2026-04-25 18:29 50.72019 20.34901 13372 ft 325 kts 204°
2026-04-25 18:30 50.65515 20.32075 12340 ft 318 kts 204°
2026-04-25 18:30 50.63389 20.31154 11967 ft 316 kts 204°
2026-04-25 18:30 50.61271 20.30233 11596 ft 315 kts 204°
2026-04-25 18:30 50.59162 20.29315 11228 ft 313 kts 204°
2026-04-25 18:31 50.57063 20.28407 10862 ft 311 kts 204°
2026-04-25 18:31 50.54979 20.27506 10499 ft 309 kts 204°
2026-04-25 18:31 50.52933 20.26624 10159 ft 309 kts 204°
2026-04-25 18:31 50.50863 20.25730 10000 ft 308 kts 204°
2026-04-25 18:32 50.48773 20.24829 9831 ft 307 kts 204°
2026-04-25 18:32 50.46707 20.23941 9822 ft 307 kts 204°
2026-04-25 18:32 50.44643 20.23051 9845 ft 308 kts 204°
2026-04-25 18:32 50.42586 20.22167 9857 ft 307 kts 203°
2026-04-25 18:33 50.40525 20.21284 9844 ft 307 kts 204°
2026-04-25 18:33 50.38466 20.20403 9823 ft 305 kts 204°
2026-04-25 18:33 50.36441 20.19537 9614 ft 302 kts 204°
2026-04-25 18:33 50.34411 20.18671 9188 ft 297 kts 204°
2026-04-25 18:34 50.32430 20.17822 8708 ft 294 kts 204°
2026-04-25 18:34 50.30470 20.16982 8210 ft 291 kts 204°
2026-04-25 18:34 50.28523 20.16150 7698 ft 289 kts 204°
2026-04-25 18:34 50.26597 20.15329 7240 ft 284 kts 204°
2026-04-25 18:35 50.24701 20.14525 6856 ft 278 kts 204°
2026-04-25 18:35 50.22860 20.13740 6479 ft 271 kts 204°
2026-04-25 18:35 50.21065 20.12970 6076 ft 270 kts 204°
2026-04-25 18:35 50.19272 20.12204 5628 ft 266 kts 204°
2026-04-25 18:36 50.17498 20.11454 5176 ft 262 kts 204°
2026-04-25 18:36 50.15759 20.10692 4726 ft 258 kts 205°
2026-04-25 18:36 50.14041 20.09919 4276 ft 254 kts 204°
2026-04-25 18:36 50.12525 20.08749 3981 ft 231 kts 228°
2026-04-25 18:37 50.11731 20.06815 3983 ft 200 kts 256°
2026-04-25 18:37 50.11418 20.04796 3900 ft 186 kts 262°
2026-04-25 18:37 50.11167 20.02861 3719 ft 178 kts 262°
2026-04-25 18:37 50.10915 20.01041 3495 ft 170 kts 261°
2026-04-25 18:38 50.10662 19.99246 3266 ft 170 kts 261°
2026-04-25 18:38 50.10411 19.97427 3040 ft 172 kts 261°
2026-04-25 18:38 50.10156 19.95593 2812 ft 174 kts 259°
2026-04-25 18:38 50.09898 19.93760 2577 ft 168 kts 260°
2026-04-25 18:39 50.09668 19.92134 2407 ft 135 kts 262°
2026-04-25 18:39 50.09481 19.90770 2236 ft 124 kts 263°
2026-04-25 18:39 50.09299 19.89450 2055 ft 125 kts 263°
2026-04-25 18:39 50.09115 19.88126 1876 ft 126 kts 262°
2026-04-25 18:40 50.08929 19.86787 1702 ft 127 kts 262°
2026-04-25 18:40 50.08743 19.85446 1529 ft 126 kts 261°
2026-04-25 18:40 50.08558 19.84110 1361 ft 127 kts 259°
2026-04-25 18:40 50.08371 19.82774 1194 ft 126 kts 258°
2026-04-25 18:41 50.08184 19.81435 1034 ft 125 kts 257°
2026-04-25 18:41 50.07997 19.80132 876 ft 122 kts 259°
2026-04-25 18:41 50.07827 19.78881 806 ft 107 kts 256°
2026-04-25 18:41 50.07735 19.78218 806 ft 34 kts 254°
2026-04-25 18:42 50.07669 19.78093 806 ft 12 kts 173°
2026-04-25 18:42 50.07649 19.78091 806 ft 5 kts 196°
2026-04-25 18:42 50.07531 19.78085 806 ft 12 kts 180°
2026-04-25 18:42 50.07470 19.78111 806 ft 7 kts 111°
2026-04-25 18:43 50.07482 19.78220 806 ft 14 kts 74°
2026-04-25 18:43 50.07499 19.78385 806 ft 18 kts 80°
2026-04-25 18:43 50.07535 19.78609 806 ft 23 kts 76°
2026-04-25 18:43 50.07563 19.78819 806 ft 18 kts 74°
2026-04-25 18:44 50.07591 19.79023 806 ft 21 kts 77°
2026-04-25 18:44 50.07624 19.79257 806 ft 23 kts 78°
2026-04-25 18:44 50.07647 19.79427 806 ft 25 kts 77°
2026-04-25 18:44 50.07686 19.79706 806 ft 28 kts 78°
2026-04-25 18:45 50.07704 19.79841 806 ft 8 kts 75°
2026-04-25 18:45 50.07715 19.79929 806 ft 1 kts 119°
2026-04-25 18:45 50.07692 19.79932 806 ft 9 kts 182°
2026-04-25 18:45 50.07594 19.79918 806 ft 16 kts 188°
2026-04-25 18:46 50.07512 19.79929 806 ft 10 kts 176°
2026-04-25 18:46 50.07435 19.79954 806 ft 12 kts 166°
2026-04-25 18:46 50.07394 19.79999 806 ft 4 kts 96°
2026-04-25 18:46 50.07406 19.80084 806 ft 10 kts 78°
2026-04-25 18:47 50.07417 19.80171 806 ft 8 kts 80°
2026-04-25 18:47 50.07423 19.80221 806 ft 0 kts 77°
2026-04-25 18:47 50.07422 19.80228 806 ft 1 kts 111°
2026-04-25 18:47 50.07418 19.80229 806 ft 2 kts 187°
2026-04-25 18:48 50.07383 19.80233 806 ft 7 kts 171°
2026-04-25 18:48 50.07358 19.80241 806 ft 1 kts 169°
2026-04-25 18:48 50.07353 19.80242 806 ft 0 kts 169°